Flag for Argentina Weather past 2 weeks in Jujuy, Jujuy, Argentina

Now
68 °F

Broken clouds.


Feels Like: 68 °F
Forecast: 64 / 72 °F
Wind: 6 mph from South

Location: Jujuy Aerodrome

Current Time: Feb 27, 2015 at 1:58:25 PM

Latest Report: Feb 27, 2015 at 1:00 PM


Visibility: N/A

Pressure: 30.01 "Hg

Humidity: 94%

Dew point: 66 °F

Location of JujuyLocation

Historic Weather in Jujuy — Graph

°F

Jujuy temperature yesterday

Maximum temperature yesterday: 77 °F (at 2:00 PM)
Minimum temperature yesterday: 68 °F (at 11:00 PM)
Average temperature yesterday: 72 °F

Past Weeks' High & Low Weather Summary

 TemperatureHumidityPressure
High86 °F (Feb 17, 4:00 PM)100% (Feb 14, 8:00 AM)30.18 "Hg (Feb 14, 8:00 AM)
Low63 °F (Feb 20, 5:00 AM)45% (Feb 12, 4:00 PM)29.62 "Hg (Feb 18, 6:00 PM)
Average72 °F83%29.98 "Hg
* Reported Feb 12 12:00 Noon — Feb 27 12:00 Noon, Jujuy, Weather by CustomWeather, © 2015

Note: Actual official high and low records may vary slightly from our data, if they occured in-between our weather recording intervals... More about our weather records

Advertising

Jujuy weather history for previous 24 hours

 ConditionsComfort  
Time TempWeatherWind HumidityBarometerVisibility
12:00 PM
Fri, Feb 27
66 °FMore clouds than sun.9 mph100%30.01 "Hg5 mi
11:00 AM64 °FThunderstorms. More clouds than sun.9 mph100%30.04 "Hg5 mi
10:00 AM64 °FThunderstorms. More clouds than sun.12 mph100%30.01 "Hg2 mi
9:00 AM64 °FRain. More clouds than sun.7 mph94%30.01 "Hg1 mi
8:00 AM64 °FDrizzle. More clouds than sun.3 mph94%29.98 "Hg4 mi
7:00 AM64 °FDrizzle. More clouds than sun.9 mph100%29.95 "Hg5 mi
6:00 AM66 °FLight rain. Mostly cloudy.6 mph100%29.95 "Hg4 mi
5:00 AM66 °FDrizzle. Mostly cloudy.7 mph100%29.92 "Hg5 mi
4:00 AM66 °FDrizzle. Overcast.2 mph100%29.92 "Hg5 mi
3:00 AM68 °FMostly cloudy.No wind94%29.92 "HgN/A
2:00 AM68 °FOvercast.No wind94%29.95 "HgN/A
1:00 AM66 °FDrizzle. Overcast.2 mph100%29.95 "Hg4 mi
12:00 AM68 °FMostly cloudy.3 mph94%29.98 "HgN/A
11:00 PM
Thu, Feb 26
68 °FMostly cloudy.6 mph88%29.95 "HgN/A
10:00 PM70 °FMostly cloudy.6 mph88%29.92 "HgN/A
9:00 PM70 °FMostly cloudy.5 mph83%29.86 "HgN/A
8:00 PM70 °FMostly cloudy.3 mph83%29.86 "HgN/A
7:00 PM72 °FOvercast.5 mph83%29.86 "HgN/A
6:00 PM73 °FPartly sunny.2 mph83%29.83 "HgN/A
5:00 PM72 °FBroken clouds.7 mph94%29.83 "HgN/A
4:00 PM77 °FDrizzle. Cloudy.3 mph74%29.86 "HgN/A
3:00 PM75 °FDrizzle. Cloudy.3 mph78%29.89 "Hg4 mi
2:00 PM77 °FBroken clouds.5 mph69%29.89 "HgN/A
1:00 PM73 °FScattered clouds.9 mph78%29.92 "HgN/A
Weather by CustomWeather, © 2015

See weather overviewHow to use our weather pages